Stations météo

Publicité
Rouen, France (7037): Température de l'air & dewpoint: 17.03.2017 13:00:00 - 23.03.2017 13:00:00 (CET)Rouen, France (7037): Température de l'air 5cm: 17.03.2017 13:00:00 - 23.03.2017 13:00:00 (CET)Rouen, France (7037): Température de l'air -20cm & Température de l'air -100cm: 17.03.2017 13:00:00 - 23.03.2017 13:00:00 (CET)Rouen, France (7037): Vitesse du vent & gusts: 17.03.2017 13:00:00 - 23.03.2017 13:00:00 (CET)Rouen, France (7037): Direction du vent: 17.03.2017 13:00:00 - 23.03.2017 13:00:00 (CET)Rouen, France (7037): reduced air pressure: 17.03.2017 13:00:00 - 23.03.2017 13:00:00 (CET)Rouen, France (7037): visibility: 17.03.2017 13:00:00 - 23.03.2017 13:00:00 (CET)Rouen, France (7037): Ensoleillement: 17.03.2017 13:00:00 - 23.03.2017 13:00:00 (CET)Rouen, France (7037): Quantités de précipitations: 17.03.2017 13:00:00 - 23.03.2017 13:00:00 (CET)
Date & Time tt [°C] td [°C] tt 5cm [°C] tt -20cm [°C] tt -100cm [°C] ff [km/h] ff [knt] fx [km/h] fx [knt] dd ppp [hPa] vv [km] sd [min] rr [mm]
23.03.2017 13:00:00 10,3 6,3 12,3 8,2 8,8 22 12 32 17 E 1009,6 15 4 0,0
23.03.2017 12:00:00 8,8 5,5 12,0 8,2 8,8 21 12 34 19 E 1009,7 12 5 0,0
23.03.2017 11:00:00 7,3 4,8 8,5 8,2 8,8 19 11 31 17 E 1009,5 10 0 0,0
23.03.2017 10:00:00 6,1 4,6 7,1 8,2 8,8 22 12 31 17 ENE 1009,4 9 0 0,0
23.03.2017 09:00:00 5,9 3,9 6,5 8,3 8,8 18 10 27 14 ENE 1009,3 14 23 0,0
23.03.2017 08:00:00 5,6 4,6 5,0 8,3 8,8 14 8 19 10 NE 1009,1 12 1 0,0
23.03.2017 07:00:00 5,4 4,0 4,8 8,3 8,8 6 3 15 8 ENE 1009,2 9 0 0,0
23.03.2017 06:00:00 5,3 4,3 4,7 8,4 8,8 10 6 19 11 ENE 1008,5 8 0 0,0
23.03.2017 05:00:00 5,6 4,6 4,9 8,4 8,8 12 7 16 8 ENE 1008,4 10 0 0,0
23.03.2017 04:00:00 5,6 5,0 5,1 8,4 8,8 10 5 12 7 ENE 1008,7 7 0 0,0
23.03.2017 03:00:00 5,9 5,5 5,8 8,4 8,8 5 3 10 6 ENE 1009,1 8 0 0,0
23.03.2017 02:00:00 5,8 5,4 5,6 8,5 8,8 0 0 13 7 N 1009,5 7 0 0,0
23.03.2017 01:00:00 5,8 5,4 5,4 8,5 8,8 11 6 14 7 E 1009,2 10 0 0,2
23.03.2017 00:00:00 5,8 5,4 5,6 8,5 8,8 12 7 19 11 ESE 1009,5 6 0 1,6
22.03.2017 23:00:00 5,9 5,6 5,7 8,5 8,8 9 5 15 8 E 1009,5 6 0 0,4
22.03.2017 22:00:00 5,9 5,5 5,9 8,5 8,8 6 4 14 8 SE 1009,3 6 0 1,7
22.03.2017 21:00:00 6,2 5,8 6,1 8,5 8,8 8 4 12 6 ESE 1009,3 5 0 0,6
22.03.2017 20:00:00 6,2 5,6 6,1 8,5 8,8 12 6 18 10 ESE 1009,0 6 0 0,8
22.03.2017 19:00:00 6,2 5,5 6,6 8,5 8,8 10 6 19 10 ESE 1008,9 7 0 0,6
22.03.2017 18:00:00 6,8 6,1 7,6 8,5 8,8 13 7 18 10 SE 1008,4 7 0 1,0
22.03.2017 17:00:00 7,0 5,9 8,3 8,4 8,7 12 7 26 14 SSE 1008,3 7 0 2,2
22.03.2017 16:00:00 8,1 4,1 9,4 8,4 8,7 15 8 28 15 S 1008,2 56 0 0,0
22.03.2017 15:00:00 7,6 5,4 10,1 8,4 8,8 17 9 29 16 SSE 1008,5 19 0 0,0
22.03.2017 14:00:00 6,5 5,0 8,0 8,4 8,8 23 13 36 19 SSE 1008,8 16 0 0,2
22.03.2017 13:00:00 6,2 3,2 7,8 8,3 8,8 25 14 42 23 S 1009,1 15 0 0,2
22.03.2017 12:00:00 6,8 3,2 8,0 8,4 8,8 24 13 42 23 S 1009,1 18 0 0,0
22.03.2017 11:00:00 6,5 2,6 7,6 8,4 8,8 32 18 48 26 SSE 1008,7 20 1 0,0
22.03.2017 10:00:00 - - - - - - - - - - - - - -
22.03.2017 09:00:00 4,6 3,1 2,9 8,5 8,8 26 14 39 21 SSE 1009,2 12 5 0,0
22.03.2017 08:00:00 3,1 2,2 0,0 8,7 8,8 25 14 39 21 SSE 1009,3 9 21 0,0
22.03.2017 07:00:00 2,3 1,3 -0,3 8,7 8,7 22 12 29 16 SSE 1009,5 9 0 0,0
22.03.2017 06:00:00 2,5 1,5 -0,5 8,8 8,7 17 9 27 14 SSE 1009,7 11 0 0,0
22.03.2017 05:00:00 2,4 1,4 -0,5 9,0 8,7 16 8 24 13 SSE 1010,2 12 0 0,0
22.03.2017 04:00:00 2,5 0,9 -0,9 9,1 8,7 13 7 20 11 SSE 1010,8 15 0 0,0
22.03.2017 03:00:00 2,3 -0,3 -0,6 9,2 8,7 11 6 22 12 SSE 1011,5 17 0 0,0
22.03.2017 02:00:00 3,2 -0,8 -1,4 9,3 8,7 15 8 26 14 S 1012,2 19 0 0,0
22.03.2017 01:00:00 2,5 -1,1 -1,5 9,4 8,7 11 6 15 8 SE 1012,7 19 0 0,0
22.03.2017 00:00:00 2,9 -1,8 -1,2 9,5 8,7 9 5 11 6 SE 1013,6 18 0 0,0
21.03.2017 23:00:00 2,8 -1,4 -1,1 9,6 8,7 8 4 10 5 SE 1013,8 16 0 0,0
21.03.2017 22:00:00 3,5 -0,7 -0,6 9,7 8,7 5 3 7 4 SE 1013,8 17 0 0,0
21.03.2017 21:00:00 4,4 0,2 1,4 9,7 8,7 2 1 4 2 SE 1014,1 19 0 0,0
21.03.2017 20:00:00 5,3 -0,3 1,3 9,7 8,7 0 0 8 4 N 1014,5 60 0 0,0
21.03.2017 19:00:00 7,3 -0,7 5,7 9,7 8,7 5 3 11 6 NW 1014,1 19 0 0,0
21.03.2017 18:00:00 8,7 -2,0 8,7 9,6 8,7 7 4 23 13 WNW 1013,6 20 18 0,0
21.03.2017 17:00:00 10,6 -2,1 16,9 9,5 8,7 16 9 39 21 WNW 1013,6 60 60 0,0
21.03.2017 16:00:00 11,0 -1,8 12,9 9,4 8,7 14 8 30 16 WSW 1013,5 60 46 0,0
21.03.2017 15:00:00 10,6 0,6 12,4 9,3 8,7 16 9 31 17 W 1014,0 20 58 0,0
21.03.2017 14:00:00 9,7 -0,5 11,5 9,2 8,7 - - - - - 1014,2 20 35 0,0
21.03.2017 13:00:00 9,9 0,8 9,0 9,2 8,7 19 11 35 19 WNW 1013,9 60 53 0,0
21.03.2017 12:00:00 8,2 1,1 8,9 9,2 8,7 19 11 29 16 WNW 1014,0 50 0 0,0
21.03.2017 11:00:00 7,7 3,0 8,0 9,2 8,7 16 8 28 15 WNW 1013,6 53 0 0,0
21.03.2017 10:00:00 7,2 3,4 7,5 9,2 8,7 14 8 29 16 W 1013,2 57 0 0,0
21.03.2017 09:00:00 7,1 3,9 6,4 9,2 8,7 11 6 24 13 W 1012,6 57 0 0,0
21.03.2017 08:00:00 6,6 4,1 5,4 9,3 8,7 12 7 22 12 WNW 1012,2 58 0 0,0
21.03.2017 07:00:00 6,5 4,8 5,4 9,3 8,7 10 6 21 11 WNW 1011,5 60 0 0,2
21.03.2017 06:00:00 6,8 4,5 6,1 9,4 8,7 18 10 44 24 WNW 1011,1 10 0 0,2
21.03.2017 05:00:00 7,4 5,9 6,5 9,4 8,7 13 7 24 13 WSW 1010,4 59 0 0,0
21.03.2017 04:00:00 7,9 6,2 7,1 9,4 8,7 13 7 27 15 WSW 1010,6 60 0 0,0
21.03.2017 03:00:00 8,3 6,3 7,5 9,4 8,7 15 8 27 15 W 1010,6 60 0 0,0
21.03.2017 02:00:00 8,6 6,9 7,7 9,4 8,7 14 8 29 16 W 1010,2 60 0 0,0
21.03.2017 01:00:00 9,0 7,0 8,0 9,4 8,7 19 10 32 18 W 1010,0 60 0 0,0
21.03.2017 00:00:00 9,4 8,8 9,0 9,4 8,6 18 10 33 18 W 1009,7 5 0 2,2
20.03.2017 23:00:00 9,6 8,8 9,2 9,5 8,7 25 14 39 21 SW 1009,4 3,4 0 0,4
20.03.2017 22:00:00 10,7 7,2 9,6 9,4 8,6 26 14 45 25 SW 1009,3 18 0 0,0
20.03.2017 21:00:00 10,9 7,0 9,6 9,4 8,6 28 15 42 23 SSW 1009,3 60 0 0,0
20.03.2017 20:00:00 11,0 6,7 9,6 9,4 8,6 28 15 51 28 SW 1009,1 60 0 0,0
20.03.2017 19:00:00 11,3 6,6 10,2 9,4 8,6 29 16 45 25 SW 1008,9 60 0 0,0
20.03.2017 18:00:00 12,0 6,7 10,9 9,3 8,6 22 12 37 20 SW 1009,1 58 3 0,0
20.03.2017 17:00:00 11,4 6,1 10,8 9,3 8,6 19 10 39 21 SW 1009,5 60 0 0,0
20.03.2017 16:00:00 11,7 5,8 10,4 9,3 8,6 27 15 40 22 SW 1009,7 60 0 0,0
20.03.2017 15:00:00 11,2 5,1 11,1 9,2 8,6 31 17 50 27 SW 1010,2 53 0 0,0
20.03.2017 14:00:00 11,6 5,5 11,3 9,2 8,6 31 17 45 24 SW 1010,3 59 0 0,0
20.03.2017 13:00:00 12,4 6,7 11,1 9,2 8,6 30 16 48 26 SW 1010,6 41 1 0,0
20.03.2017 12:00:00 11,0 6,1 10,7 9,1 8,6 21 12 40 22 SW 1010,9 57 0 0,0
20.03.2017 11:00:00 10,6 6,0 10,1 9,2 8,6 22 12 41 22 SW 1011,5 58 0 0,0
20.03.2017 10:00:00 10,0 5,0 9,8 9,2 8,6 21 11 32 17 SSW 1011,6 60 0 0,0
20.03.2017 09:00:00 9,6 4,8 8,5 9,2 8,6 22 12 32 17 SSW 1011,8 60 0 0,0
20.03.2017 08:00:00 8,9 4,3 7,5 9,2 8,6 18 10 24 13 SSW 1012,1 60 0 0,0
20.03.2017 07:00:00 8,6 4,2 7,4 9,3 8,6 16 9 29 16 SW 1012,7 60 0 0,0
20.03.2017 06:00:00 8,8 4,4 7,5 9,3 8,6 18 10 28 15 SW 1012,6 60 0 0,0
20.03.2017 05:00:00 8,7 4,9 7,5 9,4 8,6 19 10 26 14 SSW 1012,7 60 0 0,0
20.03.2017 04:00:00 8,8 4,6 7,6 9,4 8,6 18 10 29 16 SSW 1012,7 60 0 0,0
20.03.2017 03:00:00 9,1 4,3 7,6 9,4 8,6 18 10 29 15 SW 1013,2 60 0 0,0
20.03.2017 02:00:00 9,0 4,2 7,4 9,5 8,6 18 10 25 13 SW 1013,8 60 0 0,0
20.03.2017 01:00:00 8,8 4,4 6,9 9,5 8,6 17 9 24 13 WSW 1014,1 60 0 0,0
20.03.2017 00:00:00 8,7 4,7 5,0 9,6 8,6 14 8 23 12 SW 1014,3 60 0 0,0
19.03.2017 23:00:00 7,5 4,1 4,6 9,6 8,6 14 8 29 16 SSW 1014,7 60 0 0,0
19.03.2017 22:00:00 8,9 4,3 6,1 9,6 8,6 22 12 35 19 WSW 1014,7 60 0 0,0
19.03.2017 21:00:00 9,7 4,1 7,8 9,6 8,6 19 10 35 19 W 1015,0 60 0 0,0
19.03.2017 20:00:00 10,8 4,0 9,1 9,6 8,6 22 12 44 24 W 1014,8 60 0 0,0
19.03.2017 19:00:00 11,1 4,8 9,7 9,6 8,6 19 10 41 22 W 1014,7 60 0 0,0
19.03.2017 18:00:00 11,4 5,3 10,4 9,6 8,6 22 12 45 25 W 1014,6 60 0 0,0
19.03.2017 17:00:00 11,7 5,6 11,1 9,6 8,6 28 15 43 23 W 1014,7 60 0 0,0
19.03.2017 16:00:00 11,9 6,4 11,6 9,5 8,6 22 12 45 24 W 1014,7 58 0 0,0
19.03.2017 15:00:00 11,8 6,3 11,7 9,5 8,6 26 14 54 29 W 1014,6 56 0 0,0
19.03.2017 14:00:00 12,1 6,4 12,5 9,4 8,5 28 15 56 31 WSW 1014,9 50 5 0,0
19.03.2017 13:00:00 12,0 6,5 11,5 9,4 8,5 29 16 49 27 W 1015,2 59 2 0,0
19.03.2017 12:00:00 11,2 7,1 9,9 9,4 8,5 28 15 48 26 WSW 1015,7 59 0 0,0
19.03.2017 11:00:00 10,5 6,6 9,4 9,4 8,5 24 13 45 24 W 1016,2 48 0 0,0
19.03.2017 10:00:00 10,1 7,0 9,6 9,4 8,5 23 12 41 22 W 1016,1 51 1 0,0
19.03.2017 09:00:00 10,2 7,6 9,4 9,4 8,5 30 16 46 25 W 1015,8 53 6 0,0
19.03.2017 08:00:00 10,2 9,1 9,5 9,4 8,5 25 13 44 24 W 1015,8 46 0 0,0
19.03.2017 07:00:00 9,8 9,5 9,5 9,4 8,6 22 12 37 20 WSW 1015,6 7 0 0,0
19.03.2017 06:00:00 9,8 9,5 9,7 9,4 8,5 18 10 30 16 WSW 1015,8 3,0 0 0,2
19.03.2017 05:00:00 9,9 9,6 9,7 9,4 8,5 18 10 34 19 WSW 1015,9 2,5 0 0,0
19.03.2017 04:00:00 9,9 9,6 9,7 9,4 8,5 21 12 39 21 W 1016,0 2,4 0 0,2
19.03.2017 03:00:00 9,9 9,6 9,7 9,4 8,5 17 9 35 19 W 1016,2 3,0 0 0,0
19.03.2017 02:00:00 10,0 9,7 9,7 9,4 8,5 20 11 34 19 W 1017,0 9 0 0,0
19.03.2017 01:00:00 10,0 9,7 9,6 9,4 8,5 20 11 34 18 W 1017,2 7 0 0,0
19.03.2017 00:00:00 10,0 9,7 9,7 9,4 8,5 14 8 37 20 W 1017,3 2,3 0 0,2
18.03.2017 23:00:00 10,1 9,6 9,6 9,4 8,5 23 12 47 25 W 1017,2 6 0 0,0
18.03.2017 22:00:00 10,2 9,7 9,7 9,4 8,5 26 14 44 24 W 1016,9 11 0 0,0
18.03.2017 21:00:00 10,2 9,7 9,7 9,4 8,5 21 11 45 24 W 1016,9 7 0 0,0
18.03.2017 20:00:00 10,1 9,6 9,7 9,4 8,5 25 14 54 29 W 1016,6 6 0 0,0
18.03.2017 19:00:00 10,3 9,7 9,9 9,4 8,5 29 16 50 27 W 1016,5 5 0 0,0
18.03.2017 18:00:00 10,6 9,8 10,3 9,3 8,5 32 17 54 29 W 1016,1 6 0 0,0
18.03.2017 17:00:00 11,1 10,0 10,7 9,3 8,5 32 17 61 33 W 1015,9 13 0 0,0
18.03.2017 16:00:00 11,2 10,3 10,9 9,3 8,4 32 18 56 30 W 1015,5 11 0 0,2
18.03.2017 15:00:00 11,4 10,1 11,0 9,2 8,5 23 12 51 27 W 1015,7 17 0 0,0
18.03.2017 14:00:00 11,3 10,4 10,6 9,2 8,4 25 14 49 26 W 1015,8 20 0 0,0
18.03.2017 13:00:00 10,4 9,9 10,5 9,2 8,5 26 14 59 32 W 1016,5 3,9 0 0,2
18.03.2017 12:00:00 10,5 9,9 10,4 9,2 8,4 28 15 55 30 W 1016,3 3,4 0 0,2
18.03.2017 11:00:00 10,4 9,8 10,3 9,2 8,4 29 16 57 31 W 1016,0 4,3 0 0,2
18.03.2017 10:00:00 10,3 9,5 9,7 9,2 8,4 27 15 50 27 W 1015,5 9 0 0,4
18.03.2017 09:00:00 10,1 9,0 9,1 9,2 8,4 24 13 48 26 W 1014,9 10 0 0,2
18.03.2017 08:00:00 9,9 8,5 8,7 9,3 8,4 22 12 39 21 W 1014,3 52 0 0,0
18.03.2017 07:00:00 9,0 8,2 8,1 9,3 8,4 21 11 39 21 WSW 1014,2 19 0 0,0
18.03.2017 06:00:00 8,4 7,6 7,4 9,4 8,4 25 14 41 22 WSW 1014,3 16 0 0,0
18.03.2017 05:00:00 7,7 6,9 7,0 9,4 8,4 22 12 45 25 WSW 1015,0 37 0 0,0
18.03.2017 04:00:00 7,3 6,6 6,7 9,5 8,4 26 14 48 26 WSW 1015,2 7 0 0,0
18.03.2017 03:00:00 7,3 5,4 6,8 9,6 8,4 24 13 42 23 WSW 1015,7 11 0 0,0
18.03.2017 02:00:00 7,7 4,3 6,6 9,6 8,4 33 18 50 27 WSW 1015,9 51 0 0,0
18.03.2017 01:00:00 7,3 3,7 5,7 9,7 8,4 29 16 50 27 W 1016,7 58 0 0,0
18.03.2017 00:00:00 6,9 3,3 5,8 9,8 8,4 31 17 53 29 WSW 1017,3 39 0 0,0
17.03.2017 23:00:00 7,0 2,3 6,0 9,9 8,4 29 16 45 25 WSW 1018,1 52 0 0,0
17.03.2017 22:00:00 7,0 2,1 5,3 9,9 8,4 26 14 41 22 WSW 1019,1 55 0 0,0
17.03.2017 21:00:00 6,6 2,1 5,1 10,0 8,4 18 10 30 16 W 1020,0 50 0 0,0
17.03.2017 20:00:00 6,7 1,2 4,8 10,0 8,3 17 9 27 15 WSW 1019,9 60 0 0,0
17.03.2017 19:00:00 7,5 -0,2 5,9 10,0 8,4 17 9 34 19 W 1020,2 60 0 0,0
17.03.2017 18:00:00 8,4 -0,1 7,9 9,9 8,3 23 12 39 21 W 1020,4 60 5 0,0
17.03.2017 17:00:00 10,0 -0,2 12,7 9,8 8,3 22 12 41 22 W 1020,7 59 60 0,0
17.03.2017 16:00:00 11,3 1,5 15,0 9,7 8,3 20 11 38 20 WNW 1021,2 59 60 0,0
17.03.2017 15:00:00 11,3 2,3 13,1 9,7 8,3 21 12 39 21 WNW 1021,3 60 43 0,0
17.03.2017 14:00:00 11,8 3,5 13,0 9,6 8,3 21 12 35 19 W 1021,5 60 27 0,0
17.03.2017 13:00:00 11,2 3,2 12,1 9,6 8,3 20 11 33 18 NW 1021,7 60 20 0,0

tt = Température de l'air
td = dewpoint
tt 5cm = Température de l'air 5cm
tt -20cm = Température de l'air -20cm
tt -100cm = Température de l'air -100cm
ff = Vitesse du vent
fx = gusts
dd = Direction du vent
ppp = reduced air pressure
vv = visibility
sd = Ensoleillement
rr = Quantités de précipitations

stations d'obs. à proximité